Date,TemperatureHighF,TemperatureAvgF,TemperatureLowF,DewpointHighF,DewpointAvgF,DewpointLowF,HumidityHigh,HumidityAvg,HumidityLow,PressureMaxIn,PressureMinIn,WindSpeedMaxMPH,WindSpeedAvgMPH,GustSpeedMaxMPH,PrecipitationSumIn
2013-1-1,27.9,23.6,20.3,14.0,11.3,8.5,64,59,51,29.96,29.84,11,3,11,0.00
2013-1-2,27.3,24.8,20.3,20.8,15.6,8.4,76,68,59,29.93,29.87,12,3,12,0.00
2013-1-3,30.0,25.1,20.5,25.0,17.4,8.4,84,72,59,29.93,29.81,10,4,10,0.00
2013-1-4,34.9,31.2,28.8,23.1,21.8,20.2,78,68,59,29.96,29.84,10,4,10,0.00
2013-1-5,40.1,30.5,21.0,33.3,24.4,17.8,98,80,50,29.98,29.72,12,3,12,0.00
2013-1-6,35.8,33.8,30.9,35.3,31.7,25.8,98,92,80,30.04,29.63,11,3,11,0.16
2013-1-7,39.9,32.3,27.5,26.6,21.9,16.1,87,67,40,30.07,29.87,16,6,16,0.00
2013-1-8,40.5,32.5,26.1,28.4,24.2,20.7,85,72,54,29.96,29.87,10,2,10,0.00
2013-1-9,48.0,39.4,29.5,32.8,27.0,19.9,77,62,38,30.19,29.75,22,6,23,0.00
2013-1-10,47.8,33.9,22.8,34.2,24.1,17.9,92,70,39,30.28,29.84,6,1,6,0.16
2013-1-11,52.3,45.5,36.3,51.8,44.9,34.2,98,98,92,29.84,29.48,17,4,17,0.39
2013-1-12,55.9,47.7,37.6,49.2,41.7,29.7,98,81,57,29.75,29.54,16,5,16,0.00
2013-1-13,37.6,31.7,24.4,34.2,30.0,18.3,98,93,77,29.90,29.60,10,1,10,0.08
2013-1-14,27.0,21.9,15.4,19.0,15.3,10.9,84,75,63,30.19,29.90,0,0,0,0.00
2013-1-15,33.8,23.9,15.4,22.5,16.8,11.5,92,76,53,30.16,29.93,8,0,8,0.00
2013-1-16,36.1,27.8,16.0,28.5,20.1,11.7,88,74,49,29.93,29.54,17,4,19,0.00
2013-1-17,34.9,27.8,21.4,27.5,13.7,4.5,74,55,45,30.10,29.75,13,4,13,0.00
2013-1-18,40.5,28.9,18.3,26.4,14.7,5.5,77,55,46,30.16,29.66,23,6,23,0.00
2013-1-19,45.0,42.2,39.2,35.3,30.0,16.7,73,62,39,29.66,29.39,22,9,22,0.00
2013-1-20,39.6,18.9,15.3,17.3,7.9,3.8,73,62,39,29.98,29.42,22,5,22,0.08
2013-1-21,16.9,11.8,4.1,10.2,6.5,-0.7,80,79,70,29.93,29.78,11,3,11,0.00
2013-1-22,15.3,7.0,1.9,8.8,-1.5,-6.4,80,69,56,30.07,29.93,8,1,8,0.00
2013-1-23,22.1,13.2,4.6,13.2,3.6,-7.6,80,65,56,30.07,29.81,13,1,13,0.00
2013-1-24,32.9,13.1,-0.6,11.3,1.5,-6.6,75,61,39,30.37,29.96,8,1,8,0.00
2013-1-25,24.1,17.5,13.5,14.2,6.0,-0.5,71,60,53,30.22,29.75,11,2,11,0.00
2013-1-26,42.4,29.8,20.7,19.8,17.3,14.2,80,61,39,30.19,30.04,8,2,8,0.00
2013-1-27,32.2,27.2,22.1,29.7,19.2,14.5,91,72,54,30.19,29.81,9,2,9,0.00
2013-1-28,43.5,36.4,32.0,42.8,35.7,29.7,98,97,91,29.81,29.57,10,2,10,0.24
2013-1-29,55.9,46.6,33.8,55.4,46.1,33.3,98,98,98,29.75,29.19,13,3,13,1.30
2013-1-30,50.7,39.8,25.0,49.8,39.3,24.5,98,98,98,29.19,28.92,13,2,16,0.43
2013-1-31,25.0,19.8,16.0,24.5,17.6,14.1,98,91,81,29.72,29.19,0,0,0,0.00
2013-2-1,19.8,15.3,11.7,14.9,11.5,8.8,93,85,69,29.98,29.72,0,0,0,0.00
2013-2-2,24.8,16.4,8.4,17.2,10.7,-0.9,96,79,58,29.93,29.78,0,0,0,0.00
2013-2-3,21.9,15.6,8.4,18.1,9.1,-0.9,88,75,65,29.81,29.66,4,0,4,0.00
2013-2-4,28.9,19.8,13.1,19.9,14.2,5.2,93,79,65,29.78,29.66,6,1,6,0.00
2013-2-5,30.2,20.0,6.3,27.9,15.2,-1.4,95,81,70,29.78,29.54,11,3,13,0.00
2013-2-6,41.7,27.5,12.9,24.9,19.0,9.0,91,72,47,30.01,29.78,10,1,10,0.00
2013-2-7,33.4,30.9,27.9,32.8,26.9,20.7,98,85,71,29.98,29.66,7,1,7,0.00
2013-2-8,41.0,30.1,18.7,31.0,22.9,9.2,98,77,48,30.16,29.66,12,4,13,0.00
2013-2-9,41.2,22.5,6.1,23.1,11.5,-3.2,87,63,47,30.19,29.98,8,1,8,0.20
2013-2-10,40.5,30.0,19.4,39.9,25.9,13.7,98,85,73,29.98,29.34,13,2,13,0.16
2013-2-11,42.8,35.2,30.0,42.3,32.8,24.0,98,91,78,29.69,29.28,25,8,25,0.00
2013-2-12,30.4,28.6,27.0,25.6,23.5,20.9,86,81,77,29.81,29.69,12,4,12,0.00
2013-2-13,43.3,31.3,20.5,31.4,26.2,18.0,97,82,59,29.72,29.48,9,2,9,0.00
2013-2-14,38.3,32.3,25.2,36.6,30.8,22.6,98,94,84,29.69,29.39,15,4,232,0.08
2013-2-15,29.5,25.1,21.4,28.1,18.6,13.1,96,77,57,29.93,29.69,11,3,11,0.00
2013-2-16,29.8,20.5,10.8,18.7,13.9,5.0,92,76,51,29.90,29.81,10,2,10,0.00
2013-2-17,34.2,15.7,0.7,13.5,5.0,-4.8,83,64,41,29.98,29.90,8,1,8,0.00
2013-2-18,45.0,33.6,18.3,42.1,23.5,8.2,98,67,48,29.90,29.22,15,3,15,0.12
2013-2-19,42.3,25.8,16.7,41.7,23.2,12.7,98,90,80,29.78,29.16,18,7,18,0.04
2013-2-20,24.4,19.9,15.8,15.8,12.8,9.6,86,74,59,30.07,29.78,14,5,14,0.00
2013-2-21,21.4,21.4,21.2,14.7,14.4,14.1,75,74,73,30.07,30.07,10,4,10,0.00
2013-2-22,33.1,31.9,30.7,32.6,30.4,27.3,98,94,87,29.63,29.60,12,3,12,0.00
2013-2-23,32.7,29.9,26.1,30.1,25.0,19.9,92,82,60,29.69,29.60,14,5,14,0.00
2013-2-24,46.0,32.7,25.9,29.0,24.2,18.4,89,72,43,29.93,29.69,10,2,10,0.16
2013-2-25,48.6,30.4,15.3,31.9,22.0,11.0,97,72,49,29.98,29.87,6,1,6,0.00
2013-2-26,35.2,31.7,28.0,32.9,25.6,0.0,98,79,60,29.90,29.31,13,3,13,0.00
2013-2-27,38.3,34.8,33.1,37.8,34.2,32.6,98,98,95,29.42,29.28,7,1,7,0.47
2013-2-28,37.4,33.8,30.6,35.9,31.5,26.0,98,91,82,29.81,29.42,11,4,12,0.00
2013-3-1,36.7,29.1,22.3,26.0,20.5,14.5,83,71,53,29.93,29.81,12,4,12,0.00
2013-3-2,40.1,24.6,14.4,20.8,14.7,10.1,85,67,44,29.93,29.87,10,3,10,0.00
2013-3-3,43.2,24.1,10.0,19.7,12.5,4.6,86,63,39,29.90,29.81,9,2,10,0.00
2013-3-4,47.5,25.6,9.3,22.2,12.4,2.4,83,60,32,29.93,29.84,5,0,6,0.00
2013-3-5,34.0,27.8,21.6,22.4,16.7,10.1,79,63,53,29.90,29.63,17,3,17,0.00
2013-3-6,42.8,34.4,27.5,28.4,26.3,21.9,86,73,54,30.01,29.75,11,4,12,0.00
2013-3-7,41.4,33.5,23.5,29.4,23.2,16.0,88,67,43,30.19,30.01,8,2,10,0.00
2013-3-8,52.7,31.3,15.8,26.5,18.7,11.3,89,63,33,30.25,30.16,8,1,8,0.00
2013-3-9,43.3,32.5,22.8,27.2,22.4,17.3,83,67,49,30.16,29.87,8,2,8,0.00
2013-3-10,48.6,45.7,42.4,46.9,44.8,41.9,98,97,93,29.66,29.48,4,0,5,0.12
2013-3-11,51.6,44.0,34.7,51.1,43.1,34.2,98,97,87,29.48,29.25,17,4,17,0.12
2013-3-12,35.1,32.2,28.9,34.5,28.4,23.2,98,86,68,29.69,29.45,13,3,13,0.00
2013-3-13,35.6,28.1,23.4,26.4,18.0,10.3,91,68,43,30.01,29.69,13,5,13,0.00
2013-3-14,45.1,30.4,18.5,23.4,17.3,12.4,87,60,38,30.04,29.87,10,2,12,0.00
2013-3-15,41.4,36.9,32.5,34.4,32.1,22.8,95,83,67,29.87,29.63,10,3,11,0.00
2013-3-16,38.3,31.1,26.4,32.4,24.3,17.6,95,77,54,29.87,29.54,13,2,13,0.08
2013-3-17,40.1,28.9,23.4,20.8,14.7,9.3,75,56,40,30.04,29.87,13,3,13,0.00
2013-3-18,34.0,28.5,21.7,33.5,23.0,12.2,98,80,59,29.90,29.36,15,3,15,0.04
2013-3-19,30.9,24.9,20.8,29.4,16.9,10.6,94,72,50,29.75,29.42,18,7,18,0.00
2013-3-20,30.7,23.2,14.7,14.3,11.6,0.0,77,61,47,29.78,29.69,12,4,12,0.00
2013-3-21,33.6,24.3,12.0,23.0,16.6,6.9,91,73,57,29.78,29.66,11,3,11,0.00
2013-3-22,42.1,31.3,23.4,22.7,18.3,14.2,72,59,43,29.84,29.75,12,3,13,0.00
2013-3-23,38.5,30.7,22.3,22.8,20.6,15.6,81,66,51,29.93,29.81,8,2,9,0.00
2013-3-24,43.2,31.2,22.8,25.1,20.8,15.4,87,67,44,29.84,29.51,15,3,15,0.00
2013-3-25,41.7,35.0,30.9,25.0,21.9,18.4,71,59,44,29.78,29.42,15,7,15,0.00
2013-3-26,45.3,35.5,29.5,35.8,28.5,23.3,88,76,50,29.96,29.78,10,3,10,0.04
2013-3-27,47.3,36.8,30.2,32.6,26.5,18.0,97,69,38,30.04,29.96,13,4,13,0.00
2013-3-28,57.4,37.9,24.3,30.5,22.1,14.4,92,58,27,30.07,30.01,12,2,12,0.00
2013-3-29,58.1,37.4,21.6,32.3,21.2,15.4,90,57,25,30.07,29.98,10,2,10,0.00
2013-3-30,61.7,34.8,22.1,31.5,22.2,17.5,93,65,25,30.01,29.66,13,2,230,0.00
2013-3-31,48.7,43.8,37.4,41.2,35.5,26.4,94,73,51,29.66,29.45,11,4,11,0.04
2013-4-1,37.8,31.5,27.0,29.4,13.8,9.1,74,48,35,29.90,29.57,19,5,19,0.00
2013-4-2,45.7,32.1,20.3,17.1,12.5,8.9,70,46,29,30.04,29.87,13,3,13,0.00
2013-4-3,56.5,32.8,21.0,21.1,14.3,9.3,74,50,25,30.22,30.01,13,2,13,0.00
2013-4-4,57.9,40.0,21.9,23.5,17.8,11.9,75,44,25,30.13,29.75,15,4,15,0.00
2013-4-5,60.4,41.5,29.1,24.5,20.4,15.0,66,45,24,29.98,29.75,13,3,13,0.00
2013-4-6,59.0,47.5,36.5,40.1,23.0,13.5,59,38,28,29.96,29.42,15,3,15,0.00
2013-4-7,56.3,46.6,34.2,48.4,34.4,24.2,87,64,38,29.81,29.36,17,5,17,0.04
2013-4-8,52.5,41.0,33.3,52.0,37.5,25.4,98,88,70,29.81,29.42,28,4,28,0.35
2013-4-9,47.8,41.5,38.8,47.3,41.0,38.3,98,98,98,29.84,29.66,11,1,13,0.98
2013-4-10,42.3,40.5,37.4,41.7,39.5,33.6,98,96,86,29.78,29.57,16,3,17,0.24
2013-4-11,37.6,36.6,35.6,36.7,35.5,30.9,98,96,77,29.75,29.42,13,4,13,0.87
2013-4-12,40.5,37.3,34.2,39.4,36.0,33.7,98,95,84,29.57,29.34,17,4,17,0.16
2013-4-13,42.3,36.5,34.7,36.5,31.5,25.2,98,83,54,29.75,29.54,15,5,19,0.08
2013-4-14,52.7,39.8,30.2,43.7,34.2,26.9,98,81,61,29.87,29.60,8,2,8,0.04
2013-4-15,65.8,54.4,44.4,55.3,47.0,35.4,98,77,60,29.72,29.57,16,4,16,0.47
2013-4-16,55.0,46.4,39.9,46.8,38.0,32.7,98,75,47,30.04,29.72,10,3,232,0.31
2013-4-17,52.3,45.6,41.4,45.7,36.2,29.1,98,71,46,30.10,29.75,10,3,10,0.67
2013-4-18,61.5,55.6,44.8,61.0,55.0,44.2,98,98,95,29.78,29.22,24,3,24,1.89
2013-4-19,59.2,38.9,33.4,58.4,34.5,26.1,98,84,69,29.57,29.22,26,9,29,0.12
2013-4-20,44.2,34.4,28.4,27.6,19.5,13.3,81,56,34,30.22,29.57,17,5,17,0.00
2013-4-21,59.7,40.1,23.0,29.5,22.5,16.0,79,53,27,30.34,30.16,11,2,13,1.85
2013-4-22,73.0,51.9,35.4,36.8,30.0,24.9,76,48,22,30.16,29.90,9,2,9,0.00
2013-4-23,64.4,50.8,40.3,49.9,40.5,28.8,98,70,44,29.90,29.63,12,3,12,0.35
2013-4-24,48.2,39.1,34.2,39.8,31.9,23.3,98,78,41,29.87,29.66,13,4,13,0.08
2013-4-25,52.5,42.6,35.6,42.1,32.2,26.9,98,69,40,30.10,29.78,14,5,232,0.16
2013-4-26,69.4,49.8,31.8,38.4,32.5,27.3,90,57,26,30.16,30.04,15,3,15,0.00
2013-4-27,77.9,59.6,41.0,46.3,38.7,29.9,87,51,22,30.07,29.87,197,2,197,0.00
2013-4-28,71.8,59.4,50.4,54.2,45.3,35.2,80,60,48,29.87,29.60,5,1,5,0.00
2013-4-29,74.5,59.6,44.2,56.4,49.3,41.5,98,72,42,29.72,29.63,13,2,13,0.00
2013-4-30,80.8,66.4,56.5,63.2,56.7,49.4,98,73,44,29.78,29.63,13,3,13,0.59
2013-5-1,91.4,73.8,59.7,60.0,55.3,48.9,84,57,27,29.98,29.78,11,2,11,0.00
2013-5-2,90.1,70.1,59.5,59.0,54.2,49.9,83,60,27,29.98,29.87,8,2,8,0.00
2013-5-3,84.9,66.7,54.1,57.2,51.8,36.1,89,62,30,29.93,29.75,11,2,11,0.00
2013-5-4,77.9,67.5,57.4,48.9,40.3,32.4,56,38,22,29.87,29.81,6,2,6,0.00
2013-5-5,81.7,65.8,55.8,48.1,38.5,29.6,53,38,21,29.87,29.81,8,1,8,0.00
2013-5-6,81.1,63.8,46.9,44.5,38.3,34.1,70,43,20,29.84,29.78,6,0,6,0.00
2013-5-7,87.4,66.2,48.4,51.0,45.8,39.8,91,53,22,29.84,29.78,6,1,6,0.00
2013-5-8,89.8,69.4,53.1,55.1,47.5,39.2,88,51,21,29.84,29.78,8,1,8,0.00
2013-5-9,88.3,66.0,50.0,52.2,45.4,37.1,83,54,19,29.78,29.69,14,1,20,0.00
2013-5-10,59.5,51.0,46.9,56.3,49.6,45.6,98,95,73,29.72,29.60,8,3,11,0.24
2013-5-11,53.4,46.7,37.6,49.7,42.6,31.6,98,87,52,29.75,29.57,13,4,13,0.04
2013-5-12,50.4,41.9,37.6,36.3,27.5,22.1,89,58,37,29.93,29.75,13,5,13,0.00
2013-5-13,61.0,45.5,28.9,34.0,26.3,21.1,91,52,24,29.96,29.87,10,2,13,0.00
2013-5-14,79.0,61.4,46.6,52.8,39.7,24.9,76,45,34,29.87,29.45,15,3,15,0.00
2013-5-15,83.8,70.2,57.0,59.8,46.8,33.5,83,46,23,29.66,29.36,13,3,13,0.00
2013-5-16,89.2,66.2,46.4,50.0,43.1,36.0,90,51,19,29.84,29.63,13,2,13,0.00
2013-5-17,71.1,62.6,54.3,46.8,40.3,35.5,54,44,33,29.93,29.84,10,2,10,0.00
2013-5-18,90.7,70.3,56.1,59.5,48.6,42.4,67,48,25,29.96,29.81,7,1,8,0.00
2013-5-19,93.2,75.3,58.1,60.1,52.6,43.0,66,47,28,29.84,29.66,9,1,9,0.00
2013-5-20,87.6,73.0,68.0,69.3,63.3,58.5,83,72,50,29.69,29.60,12,2,12,0.04
2013-5-21,83.5,73.0,63.7,66.3,62.7,58.7,98,72,44,29.63,29.54,16,4,24,0.24
2013-5-22,70.7,65.7,57.7,68.8,63.6,57.2,98,93,76,29.54,29.48,13,2,13,0.35
2013-5-23,57.7,52.1,42.8,57.2,50.2,35.6,98,93,75,30.04,29.54,15,4,15,0.31
2013-5-24,65.1,49.2,36.1,43.6,37.8,34.0,95,68,41,30.19,30.04,11,3,11,0.00
2013-5-25,72.5,54.8,39.2,44.5,37.1,30.2,95,58,23,30.22,30.13,6,1,7,0.00
2013-5-26,77.2,58.7,43.0,44.5,38.4,31.7,85,52,23,30.16,30.04,8,1,8,0.00
2013-5-27,60.4,55.1,51.4,52.5,43.0,34.2,98,67,42,30.07,29.81,8,2,8,0.04
2013-5-28,62.1,55.3,53.4,61.5,54.8,52.9,98,98,98,29.81,29.63,4,0,4,0.91
2013-6-2,63.0,55.1,47.5,54.1,46.0,39.5,98,73,48,29.93,29.66,13,4,13,0.00
2013-6-3,72.7,55.4,40.1,45.8,40.4,37.4,98,62,29,29.98,29.90,9,2,10,0.00
2013-6-4,80.2,62.4,46.4,48.2,44.5,41.2,87,56,30,30.07,29.98,8,1,10,0.00
2013-6-5,73.9,62.7,57.9,51.3,43.3,34.6,78,50,29,30.04,29.90,8,2,8,0.00
2013-6-6,66.7,60.1,55.4,57.3,51.7,45.5,92,75,55,29.90,29.78,9,2,9,0.04
2013-6-7,81.3,64.4,51.4,51.9,45.7,39.9,88,55,24,29.84,29.75,12,2,12,0.00
2013-6-8,80.6,65.6,52.0,54.7,48.2,37.0,90,58,25,29.96,29.81,194,1,194,0.00
2013-6-9,85.1,69.3,58.5,64.5,57.1,51.2,89,67,40,29.96,29.81,10,2,10,0.12
2013-6-10,73.4,67.2,63.1,68.8,63.8,55.9,98,89,69,29.81,29.66,8,1,8,0.24
2013-6-11,83.5,68.9,57.0,67.0,61.7,56.5,98,80,50,29.84,29.72,10,2,10,0.00
2013-6-12,80.8,70.5,63.9,69.2,65.2,61.4,98,84,65,29.84,29.54,15,1,15,0.28
2013-6-13,78.1,68.3,59.9,64.7,59.4,54.3,98,76,47,29.90,29.57,14,4,14,0.31
2013-6-14,85.5,67.8,54.7,57.4,53.2,48.6,93,64,29,30.01,29.90,9,2,9,0.00
2013-6-15,76.1,66.2,55.6,62.4,58.1,52.0,94,76,56,29.98,29.78,15,2,15,0.00
2013-6-16,81.7,70.6,63.5,68.4,62.8,53.9,98,79,44,29.81,29.72,12,3,13,0.98
2013-6-17,88.2,72.4,59.0,65.1,57.0,50.8,98,65,29,29.84,29.75,13,2,13,0.00
2013-6-18,78.1,67.0,58.1,60.1,50.9,37.8,88,60,30,29.98,29.84,10,2,10,0.00
2013-6-19,83.1,66.2,49.6,49.5,42.7,38.6,78,46,22,30.10,29.98,8,1,8,0.00
2013-6-20,90.1,70.2,52.7,56.4,50.4,44.8,93,56,25,30.10,30.04,8,1,8,0.00
2013-6-21,84.7,80.3,71.8,64.0,61.4,58.0,76,53,41,30.04,29.90,10,4,10,0.00
2013-6-22,91.9,77.8,68.5,69.7,65.8,62.3,90,69,39,30.04,29.87,10,2,10,0.00
2013-6-23,92.3,80.5,69.3,68.9,64.9,60.7,87,62,37,29.96,29.87,13,4,13,0.00
2013-6-24,91.6,79.2,71.4,69.8,64.9,59.3,83,64,36,29.98,29.78,11,4,11,0.00
2013-6-25,81.5,71.7,66.7,74.8,67.9,61.2,98,88,70,29.90,29.75,14,2,14,0.47
2013-6-26,87.8,76.0,66.6,71.4,68.2,65.1,98,79,49,29.78,29.66,6,2,6,0.00
2013-6-27,88.2,77.1,68.4,71.8,67.7,62.7,95,75,43,29.69,29.60,5,3,5,0.00
2013-6-28,83.3,72.6,66.2,66.5,63.0,55.7,95,74,43,29.60,29.48,13,4,13,0.08
2013-6-29,74.8,67.9,62.1,68.3,62.6,58.3,98,84,64,29.69,29.48,5,2,5,0.00
2013-6-30,85.8,73.2,63.5,62.6,56.1,42.3,90,59,29,29.93,29.69,6,2,6,0.00
2013-7-1,83.1,69.0,57.7,52.9,46.3,40.6,68,46,29,30.01,29.90,12,3,12,0.00
2013-7-2,67.3,63.3,59.7,61.8,53.3,36.4,91,73,36,30.01,29.96,8,2,8,0.08
2013-7-3,85.8,69.1,60.8,67.2,59.5,50.7,93,73,42,30.01,29.93,8,1,8,0.00
2013-7-4,82.4,72.2,64.2,65.1,60.1,51.7,96,69,36,30.04,29.98,10,2,10,0.00
2013-7-5,91.0,76.0,64.0,67.0,60.9,55.1,94,64,30,30.04,29.96,8,1,8,0.00
2013-7-6,89.6,76.4,67.1,68.3,64.3,60.8,92,69,40,30.01,29.90,8,1,8,0.00
2013-7-7,90.5,77.9,71.4,69.8,66.7,62.2,90,71,40,29.96,29.87,10,3,10,0.00
2013-7-8,79.3,75.8,72.0,72.5,69.4,66.1,91,81,69,29.96,29.87,13,3,13,0.00
2013-7-9,89.1,75.8,68.5,73.7,69.6,66.3,97,82,55,29.93,29.78,11,2,11,0.00
2013-7-10,85.1,77.5,65.3,75.0,63.5,48.2,95,66,32,29.90,29.75,12,4,15,0.00
2013-7-11,89.1,72.5,59.2,60.4,53.2,44.8,91,57,23,30.01,29.90,10,2,10,0.00
2013-7-12,90.1,73.5,59.9,58.6,54.1,47.0,83,56,24,30.10,29.98,6,1,6,0.00
2013-7-13,92.7,75.9,61.2,63.3,56.6,52.4,93,57,26,30.13,30.04,8,1,8,0.00
2013-7-14,96.8,74.2,65.3,68.8,62.9,57.9,88,70,29,30.19,30.10,6,0,8,0.00
2013-7-15,97.7,82.9,71.2,73.6,69.6,65.2,91,67,36,30.25,30.16,6,1,6,0.00
2013-7-16,95.4,84.0,73.9,74.6,70.5,64.3,92,67,39,30.25,30.19,10,2,10,0.00
2013-7-17,97.3,84.6,74.8,75.5,70.7,66.4,90,66,37,30.25,30.13,11,2,11,0.00
2013-7-18,97.2,85.4,74.3,74.8,69.8,64.8,91,63,36,30.16,29.93,13,3,13,0.00
2013-7-19,93.7,84.7,80.4,73.3,69.6,62.7,79,62,38,29.96,29.75,26,6,26,0.00
2013-7-20,90.1,79.2,68.2,69.4,58.0,49.7,81,52,28,29.98,29.75,11,2,11,0.00
2013-7-21,90.1,73.2,61.7,67.6,55.3,45.3,94,55,32,30.07,29.96,8,1,8,0.51
2013-7-22,86.5,74.5,65.1,71.4,66.5,62.1,98,79,46,30.04,29.81,8,2,9,0.04
2013-7-23,82.0,73.4,58.8,70.2,60.3,45.5,92,66,36,30.04,29.75,13,4,13,0.00
2013-7-24,83.1,65.1,51.6,50.6,47.2,44.2,85,56,29,30.16,30.04,10,2,10,0.00
2013-7-25,83.7,67.7,54.7,56.8,51.1,46.3,92,60,31,30.22,30.13,9,2,9,0.00
2013-7-26,77.4,67.4,61.3,64.6,57.4,51.1,98,72,46,30.16,30.01,13,3,13,0.20
2013-7-27,71.1,63.1,57.0,64.6,57.4,47.7,98,83,58,30.01,29.96,10,2,10,0.00
2013-7-28,67.5,59.0,54.7,60.8,54.2,48.8,98,85,60,30.07,29.90,12,3,12,0.39
2013-7-29,73.9,62.9,57.2,58.3,55.5,52.3,98,79,49,30.31,30.04,8,2,8,0.04
2013-7-30,84.6,67.0,50.7,61.5,54.5,48.8,98,69,36,30.34,30.22,6,1,8,0.00
2013-7-31,71.1,67.3,64.2,68.3,63.7,59.0,96,88,74,30.25,30.04,6,0,6,0.04
2013-8-1,80.6,69.6,60.6,65.9,57.6,47.6,98,71,32,30.07,30.04,11,2,11,0.00
2013-8-2,76.6,66.9,59.2,65.4,60.7,54.8,95,81,66,30.07,29.98,10,2,10,0.00
2013-8-3,82.4,69.2,59.4,65.7,55.2,46.3,98,67,31,30.16,30.04,11,2,11,0.00
2013-8-4,80.8,65.6,55.6,56.1,50.6,40.7,92,62,31,30.31,30.16,6,2,6,0.00
2013-8-5,74.7,62.9,51.3,59.4,53.0,46.8,95,72,49,30.25,30.07,8,0,8,0.00
2013-8-6,80.6,70.6,65.3,69.2,64.3,59.8,91,81,63,30.07,29.98,9,2,9,0.00
2013-8-7,83.7,73.2,64.4,72.0,66.5,59.7,98,81,55,30.07,29.96,10,3,10,0.12
2013-8-8,86.5,70.2,58.5,60.8,53.3,45.2,94,61,26,30.13,30.07,8,1,8,0.00
2013-8-9,85.6,70.8,57.0,60.6,55.3,50.9,92,61,37,30.13,30.10,11,2,13,0.00
2013-8-10,86.9,67.1,61.5,60.4,56.7,46.8,88,72,26,30.28,30.13,8,1,8,0.00
2013-8-11,81.3,68.6,60.1,58.9,54.7,48.4,86,63,33,30.25,30.19,9,1,9,0.00
2013-8-12,75.6,68.3,65.1,72.6,65.0,58.2,98,90,73,30.19,30.01,6,1,6,0.71
2013-8-13,71.1,61.4,52.9,63.7,49.7,42.3,95,69,38,30.25,30.04,12,4,12,0.00
2013-8-14,77.7,60.0,47.7,52.3,46.4,43.1,91,64,32,30.34,30.25,10,1,10,0.00
2013-8-15,79.5,63.1,48.6,59.3,49.8,45.2,97,66,32,30.31,30.22,9,2,13,0.00
2013-8-16,87.1,67.8,53.1,63.6,53.1,48.5,97,65,28,30.34,30.25,8,1,8,0.00
2013-8-17,90.0,70.3,54.3,64.0,53.3,45.3,97,62,22,30.40,30.31,7,0,7,0.00
2013-8-18,90.7,70.7,55.4,62.0,54.7,0.0,95,63,27,30.37,30.25,8,1,8,0.00
2013-8-19,87.8,70.3,55.8,62.9,55.6,51.2,96,65,30,30.28,30.19,10,2,10,0.00
2013-8-20,89.8,74.2,61.5,67.0,60.8,0.0,95,67,36,30.22,30.19,8,2,8,0.00
2013-8-21,91.8,77.5,65.5,67.2,63.0,58.5,94,65,34,30.25,30.10,13,3,13,0.00
2013-8-22,78.3,71.0,64.8,70.5,67.1,62.5,98,88,64,30.25,30.13,16,1,16,0.16
2013-8-23,90.0,69.4,54.3,64.5,54.3,43.3,97,66,20,30.34,30.22,10,1,10,0.08
2013-8-24,88.9,70.6,55.8,61.4,54.8,50.3,97,64,28,30.43,30.34,9,1,9,0.00
2013-8-25,90.7,75.2,62.6,63.8,59.1,56.5,84,60,34,30.40,30.28,17,4,17,0.00
2013-8-26,87.6,76.9,68.0,69.8,65.7,61.9,89,69,50,30.28,30.13,12,2,12,0.00
2013-8-27,92.7,81.6,73.8,75.7,70.9,65.0,97,72,44,30.16,29.96,13,4,13,0.04
2013-8-28,87.4,77.6,72.7,75.1,71.9,66.3,98,84,51,30.01,29.96,8,1,8,0.12
2013-8-29,94.5,78.1,66.7,71.2,66.0,59.6,98,71,32,30.22,30.01,5,0,5,0.00
2013-8-30,92.5,77.6,67.6,71.1,67.1,64.0,95,73,41,30.16,29.96,15,4,15,0.00
2013-8-31,87.4,73.5,65.5,67.2,63.4,59.0,95,73,42,30.04,29.96,10,1,10,0.00
2013-9-1,88.7,74.4,65.3,72.2,66.2,61.4,95,77,46,30.01,29.90,9,1,10,0.00
2013-9-2,72.5,66.4,61.0,68.4,57.3,49.2,92,74,52,30.13,29.93,12,3,12,0.00
2013-9-3,80.4,65.9,55.2,53.7,50.9,47.9,84,61,33,30.22,30.13,10,2,10,0.00
2013-9-4,84.9,67.9,55.6,63.6,56.2,50.9,97,70,38,30.28,30.19,14,2,14,0.00
2013-9-5,82.4,65.9,53.8,59.5,46.7,34.9,82,56,20,30.46,30.28,9,1,10,0.00
2013-9-6,87.3,66.0,50.0,56.7,48.9,43.2,91,60,22,30.40,30.40,51,1,51,0.00
2013-9-7,82.4,71.9,65.5,67.5,61.7,55.0,90,71,54,30.40,30.40,8,2,8,0.04
2013-9-8,84.0,71.3,65.8,66.0,59.4,51.6,95,70,35,30.40,30.40,8,1,8,0.00
2013-9-9,86.0,72.0,61.0,75.3,66.1,53.8,98,83,63,30.40,30.40,6,0,6,1.85
2013-9-10,96.1,83.1,75.0,73.6,65.7,57.1,88,60,28,30.40,30.40,15,2,15,0.00
2013-9-11,87.3,77.7,67.8,71.1,65.7,58.9,87,67,41,30.40,30.40,6,2,6,0.00
2013-9-12,80.4,68.0,57.7,66.6,56.2,45.9,97,70,37,0.00,0.00,17,3,17,0.00
2013-9-13,72.5,58.5,49.6,47.7,41.1,30.5,85,57,23,0.00,0.00,13,4,13,0.00
2013-9-14,73.9,56.4,42.1,50.1,43.7,38.0,93,65,33,0.00,0.00,12,2,12,0.00
2013-9-15,60.6,57.1,52.2,57.8,51.6,41.2,98,82,58,18.38,0.00,8,1,8,0.04
2013-9-16,68.7,56.9,48.7,56.5,47.9,0.0,98,74,38,18.38,18.38,10,2,11,0.00
2013-9-17,76.6,56.2,41.4,48.5,43.6,37.8,94,67,33,18.38,18.38,5,1,232,0.00
2013-9-18,83.3,65.5,53.2,59.6,52.2,45.9,86,65,35,18.38,18.38,11,1,11,0.00
2013-9-19,74.8,68.1,62.6,70.8,64.7,53.3,98,89,65,0.00,0.00,6,2,6,0.91
2013-9-20,71.6,69.5,63.0,70.8,66.2,57.7,98,89,81,0.00,0.00,10,5,10,0.00
2013-9-21,64.9,59.7,54.3,57.7,50.4,43.5,92,73,47,0.00,0.00,10,3,10,0.00
2013-9-22,58.6,53.5,47.3,47.4,42.9,39.0,89,69,50,0.00,0.00,8,2,10,0.00
2013-9-23,66.6,48.7,39.0,44.1,39.6,35.5,87,72,40,0.00,0.00,4,0,4,0.00
2013-9-24,76.8,56.9,43.9,50.8,44.9,40.6,93,68,32,28.15,0.00,5,1,6,0.00
2013-9-25,80.1,59.5,46.2,54.7,46.6,43.0,96,67,30,18.38,18.38,6,1,6,0.00
2013-9-26,84.2,60.8,45.5,56.2,46.9,42.5,98,66,24,18.38,18.38,6,0,6,0.00
2013-9-27,86.5,63.1,47.1,55.8,48.9,44.0,95,65,28,18.38,18.38,6,1,6,0.00
2013-9-28,85.1,66.8,54.0,59.0,51.7,47.4,97,64,29,18.38,18.38,10,2,10,0.00
2013-9-29,71.8,63.6,52.9,61.3,53.3,47.3,98,72,43,18.38,18.38,9,3,9,0.28
2013-9-30,80.1,60.7,49.3,57.6,49.8,46.5,95,72,32,18.38,18.38,7,1,7,0.00
2013-10-1,75.0,63.5,51.8,63.4,58.8,48.1,98,85,65,18.38,18.38,9,4,9,0.00
2013-10-2,86.9,66.5,52.5,62.1,50.2,36.6,98,64,18,18.38,18.38,6,3,6,0.00
2013-10-3,78.8,64.7,52.7,68.2,57.9,45.9,91,79,64,18.38,18.38,3,0,3,0.00
2013-10-4,80.4,70.8,66.0,67.5,65.3,63.5,97,84,62,18.38,18.38,0,0,0,0.00
2013-10-5,75.2,69.2,65.1,72.8,67.7,64.5,98,95,87,18.38,18.38,0,0,0,0.67
2013-10-6,69.8,60.4,51.6,68.0,58.6,47.8,98,94,73,18.38,18.38,0,0,0,0.28
2013-10-7,63.7,53.1,46.0,55.6,48.4,43.6,98,86,55,18.38,18.38,0,0,0,0.28
2013-10-8,78.1,56.6,41.2,52.3,46.1,40.6,98,73,34,18.38,18.38,0,0,0,0.00
2013-10-9,79.2,58.5,44.2,52.7,45.6,41.5,96,67,31,18.38,18.38,0,0,0,0.00
2013-10-10,82.0,57.9,41.9,54.5,45.1,39.2,97,68,29,18.38,18.38,0,0,0,0.00
2013-10-11,79.9,57.8,42.4,51.7,43.8,38.2,94,65,23,18.38,18.38,0,0,0,0.00
2013-10-12,81.5,61.6,47.8,62.6,51.3,43.9,98,73,32,18.38,18.38,0,0,0,0.31
2013-10-13,67.1,54.1,42.4,59.5,46.8,41.1,98,79,43,0.00,0.00,0,0,0,0.04
2013-10-14,70.9,51.0,37.4,48.4,38.6,31.8,98,68,29,0.00,0.00,0,0,0,0.00
2013-10-15,66.0,55.2,45.7,61.1,50.7,41.2,98,85,70,0.00,0.00,0,0,0,0.35
2013-10-16,61.7,52.8,50.4,61.1,51.0,47.2,98,94,86,0.00,0.00,0,0,0,0.04
2013-10-17,52.7,49.4,40.3,52.2,48.9,39.8,98,98,98,0.00,0.00,0,0,0,0.63
2013-10-18,58.8,44.6,36.9,56.6,42.6,36.3,98,93,74,0.00,0.00,0,0,0,0.00
2013-10-19,54.5,46.2,41.7,49.1,41.3,32.9,98,84,46,0.00,0.00,0,0,0,0.12
2013-10-20,58.5,47.5,37.4,51.4,42.5,36.9,98,84,52,0.00,0.00,0,0,0,0.08
2013-10-21,53.8,47.6,39.9,53.0,41.1,23.3,98,79,51,0.00,0.00,0,0,0,0.08
2013-10-22,52.3,42.2,35.4,35.1,29.1,22.1,92,61,46,0.00,0.00,0,0,0,0.04
2013-10-23,45.1,37.4,32.4,41.0,34.0,27.3,98,88,54,0.00,0.00,0,0,0,0.04
2013-10-24,46.8,37.6,34.3,41.9,34.6,30.4,98,89,65,0.00,0.00,0,0,0,0.08
2013-10-25,47.1,40.0,33.1,40.3,32.5,26.0,98,77,44,0.00,0.00,0,0,0,0.00
2013-10-26,56.8,48.4,40.6,39.7,32.6,28.1,71,55,42,0.00,0.00,0,0,0,0.04
2013-10-27,57.0,44.3,36.7,37.1,32.2,29.5,88,65,37,0.00,0.00,0,0,0,0.04
2013-10-28,51.6,40.4,32.7,41.2,31.8,28.5,95,73,53,0.00,0.00,0,0,0,0.00
2013-10-29,54.9,43.7,39.0,36.4,30.8,25.6,76,60,48,0.00,0.00,0,0,0,0.00
2013-10-30,67.1,49.8,35.4,54.0,41.4,31.0,94,75,44,0.00,0.00,0,0,0,0.24
2013-11-1,46.9,46.7,46.4,46.4,46.1,45.9,98,98,98,0.00,0.00,0,0,0,0.20
2013-11-2,49.1,45.0,41.7,45.9,42.7,38.7,98,92,72,0.00,0.00,0,0,0,0.08
2013-11-3,54.7,42.7,34.7,41.2,35.3,31.4,98,77,48,0.00,0.00,0,0,0,0.00
2013-11-4,54.9,45.1,38.1,39.0,33.0,29.7,84,65,42,0.00,0.00,0,0,0,0.00
2013-11-5,62.8,53.8,49.5,48.4,44.7,39.0,84,72,53,0.00,0.00,0,0,0,0.00
2013-11-6,56.3,50.0,40.6,55.8,48.5,40.1,98,95,70,0.00,0.00,0,0,0,1.14
2013-11-7,45.1,37.9,34.3,40.1,31.0,27.9,98,77,57,0.00,0.00,0,0,0,0.00
2013-11-8,49.6,39.6,33.4,33.6,29.6,24.5,93,70,40,0.00,0.00,0,0,0,0.00
2013-11-9,51.3,47.6,39.9,41.5,34.7,27.6,70,61,50,0.00,0.00,0,0,0,0.00
2013-11-10,50.7,42.7,33.1,31.1,27.1,23.7,79,54,40,0.00,0.00,0,0,0,0.00
2013-11-11,46.4,36.9,25.7,38.9,30.3,19.4,97,77,58,0.00,0.00,0,0,0,0.24
2013-11-12,36.5,27.7,21.0,26.2,18.8,13.7,91,71,43,0.00,0.00,0,0,0,0.00
2013-11-13,44.4,30.5,18.5,26.4,18.8,14.2,90,64,38,0.00,0.00,0,0,0,0.00
2013-11-14,49.6,40.8,32.7,29.6,24.6,20.5,69,53,37,0.00,0.00,0,0,0,0.00
2013-11-15,52.5,42.2,32.5,33.6,27.6,23.4,74,57,38,0.00,0.00,0,0,0,0.00
2013-11-16,55.8,46.5,31.8,55.2,41.4,25.2,98,83,72,0.00,0.00,0,0,0,0.24
2013-11-17,63.5,55.6,43.0,62.0,54.6,36.8,98,96,76,29.34,0.00,23,4,26,1.85
2013-11-18,44.4,37.9,34.7,38.7,27.6,20.6,80,66,55,29.96,29.34,16,6,20,0.00
2013-11-19,52.5,37.2,28.8,26.4,21.5,18.4,73,54,34,30.13,29.96,10,2,10,0.00
2013-11-20,51.6,36.7,26.6,30.6,22.5,18.2,78,58,31,30.13,29.96,8,1,8,0.00
2013-11-21,50.9,45.1,39.2,45.2,39.1,31.1,97,80,66,29.98,29.93,9,1,9,0.08
2013-11-22,46.0,37.0,25.3,45.5,32.3,19.9,98,84,61,30.19,29.93,13,3,17,0.00
2013-11-23,30.9,24.8,17.8,22.2,12.6,4.2,85,60,41,30.34,30.07,16,6,16,0.00
2013-11-24,28.0,21.4,17.2,16.6,9.1,2.5,76,59,43,30.37,30.10,12,4,12,0.00
2013-11-25,34.3,27.7,21.4,30.8,18.0,4.8,94,68,46,30.10,29.78,15,7,15,0.00
2013-11-26,34.2,31.5,25.0,28.8,24.3,11.7,83,75,56,29.81,29.72,11,5,13,0.00
2013-11-27,36.7,25.4,20.1,16.9,12.2,5.9,75,58,39,29.98,29.81,13,4,13,0.00
2013-11-28,28.0,24.6,20.1,21.0,16.9,9.6,84,73,53,30.19,29.96,11,2,11,0.00
2013-11-29,32.9,24.3,17.6,21.1,17.4,12.1,89,75,58,30.34,30.19,4,0,4,0.00
2013-11-30,48.0,33.8,23.2,28.8,21.7,15.7,78,62,45,30.25,29.87,13,3,13,0.00
2013-12-1,47.1,39.4,34.5,34.6,26.0,21.7,87,59,46,29.87,29.78,13,2,13,0.00
2013-12-2,45.3,35.9,30.4,31.4,25.0,19.6,87,66,44,29.78,29.63,6,0,6,0.00
2013-12-3,35.6,34.0,31.8,35.1,30.1,19.3,98,87,56,29.66,29.54,6,2,6,0.67
2013-12-4,56.7,44.8,35.8,56.1,44.2,35.1,98,98,92,29.60,29.34,17,2,17,0.00
2013-12-5,54.3,36.1,27.3,53.5,28.5,16.4,97,74,58,29.96,29.34,20,6,20,0.00
2013-12-6,27.3,23.4,20.7,16.8,14.6,12.8,80,68,62,30.19,29.96,10,4,10,0.00
2013-12-7,23.2,18.7,12.0,16.1,11.7,5.3,83,74,63,30.40,30.19,9,2,9,0.00
2013-12-8,22.6,18.6,12.2,19.3,12.4,5.5,91,77,58,30.34,29.75,8,1,8,0.00
2013-12-9,28.6,23.9,16.7,27.9,17.1,5.3,98,76,56,29.90,29.63,20,5,22,0.00
2013-12-10,22.1,17.8,12.2,17.9,9.9,5.2,88,71,59,29.96,29.66,14,5,15,0.00
2013-12-11,21.2,17.5,12.6,17.6,11.0,5.9,89,75,63,30.22,29.96,10,3,10,0.00
2013-12-12,25.0,16.4,10.9,20.3,10.8,4.3,86,78,68,30.19,29.93,13,4,14,0.00
2013-12-13,34.3,27.2,21.6,22.4,19.5,14.2,85,73,56,30.01,29.90,6,2,6,0.00
2013-12-14,23.2,19.4,17.1,17.2,14.2,11.1,86,80,74,30.01,29.69,8,3,11,0.00
2013-12-15,23.2,19.7,15.3,21.0,13.3,5.7,91,76,59,29.84,29.57,12,3,12,0.00
2013-12-16,32.7,16.7,4.5,17.7,7.3,-2.0,85,67,43,29.93,29.78,6,0,8,0.00
2013-12-17,32.0,26.3,18.3,30.4,22.6,12.9,96,86,71,29.78,29.60,14,4,17,0.00
2013-12-18,33.6,28.3,25.0,25.5,17.4,9.9,90,64,48,29.90,29.57,13,4,13,0.00
2013-12-19,41.5,35.0,28.0,36.1,29.9,21.1,96,82,67,29.72,29.57,10,2,11,0.12
2013-12-20,33.1,32.5,31.3,32.6,32.0,30.8,98,98,97,29.66,29.51,8,1,8,0.20
2013-12-21,33.3,32.4,30.7,32.8,31.9,30.0,98,98,97,29.63,29.48,5,0,6,0.00
2013-12-22,33.3,31.4,30.4,32.8,30.8,29.4,98,98,96,29.51,29.36,0,0,0,0.00
2013-12-23,30.2,24.3,17.6,26.0,20.6,13.5,92,86,79,30.07,29.90,0,0,0,0.00
2013-12-24,31.6,18.8,12.0,20.9,13.3,7.1,87,79,59,30.25,30.04,0,0,0,0.00
2013-12-25,25.2,20.5,12.9,23.9,16.9,7.9,95,86,80,30.19,29.81,0,0,0,0.00
2013-12-26,28.8,25.5,22.3,26.1,21.4,14.6,98,85,67,30.01,29.78,0,0,0,0.00
2013-12-27,40.3,32.5,27.0,33.8,29.2,25.5,98,88,73,30.04,29.81,17,2,17,0.12
2013-12-28,47.3,38.9,31.1,38.2,33.7,29.0,98,82,67,29.84,29.60,14,5,15,0.04
2013-12-29,40.6,30.9,18.3,34.8,24.7,8.5,93,78,65,29.87,29.51,13,5,15,0.00
2013-12-30,20.7,17.1,14.2,12.2,8.2,3.6,77,68,62,30.04,29.87,10,3,11,0.00
2013-12-31,19.4,16.0,13.1,13.1,10.6,8.6,83,79,68,30.10,29.84,9,3,11,0.00
2014-1-1,14.5,12.5,11.1,9.3,5.3,0.4,81,73,55,30.16,30.01,10,3,11,0.00
2014-1-2,17.1,11.1,-2.2,5.2,-1.4,-18.3,68,57,45,30.13,29.96,15,4,17,0.00